KI5NYZ-13 Weather Reports


Display with metric or nautical units.
time (UTC)temp
F
wind
direction
speed
MPH
gust
MPH
rain 1hr
in
rain 24hr
in
rain mn
in
humidity
%
barometer
mb
20260904155014 86 272 7.0 7.0 0.00 0.13 0.00 43 1008.4
20260904152013 84 241 8.0 8.0 0.00 0.14 0.00 45 1008.9
20260904145013 82 234 4.0 4.0 0.00 0.15 0.00 47 1009.1
20260904142011 79 247 2.0 2.0 0.00 0.15 0.00 51 1009.7
20260904135010 75 180 0.0 0.0 0.00 0.15 0.00 54 1010.2
20260904132010 72 267 0.0 0.0 0.00 0.15 0.00 59 1010.4
20260904125008 71 210 0.0 1.0 0.00 0.15 0.00 61 1010.4
20260904122007 70 28 0.0 0.0 0.00 0.15 0.00 62 1010.4
20260904115006 71 41 0.0 0.0 0.00 0.15 0.00 62 1010.0
20260904112005 72 248 3.0 3.0 0.00 0.15 0.00 60 1009.6
20260904105004 72 276 2.0 2.0 0.00 0.15 0.00 60 1009.5
20260904102003 73 258 1.0 1.0 0.00 0.15 0.00 60 1009.2
20260904095002 73 194 0.0 0.0 0.00 0.15 0.00 59 1009.0
20260904092002 74 204 0.0 1.0 0.00 0.15 0.00 57 1008.7
20260904085000 72 240 2.0 2.0 0.00 0.15 0.00 62 1009.1
20260904081959 75 234 0.0 0.0 0.00 0.15 0.00 53 1008.6
20260904074958 75 281 0.0 0.0 0.00 0.15 0.00 53 1008.7
20260904071957 74 360 0.0 0.0 0.00 0.15 0.00 55 1009.0
20260904064956 77 360 0.0 0.0 0.00 0.15 0.00 52 1008.4
20260904061955 80 228 0.0 0.0 0.00 0.15 0.00 48 1007.8
20260904054954 82 290 2.0 2.0 0.00 0.15 0.00 45 1007.2
20260904051953 80 282 1.0 1.0 0.00 0.15 0.00 49 1007.5
20260904044952 82 316 1.0 1.0 0.00 0.15 0.15 47 1007.2
20260904041951 83 286 3.0 3.0 0.00 0.15 0.15 45 1007.1
20260904034950 84 246 1.0 1.0 0.00 0.15 0.15 41 1006.7
20260904031949 84 360 0.0 0.0 0.00 0.15 0.15 40 1006.3
20260904024948 84 360 0.0 0.0 0.00 0.15 0.15 41 1005.9
20260904021947 84 360 0.0 0.0 0.00 0.15 0.15 39 1005.6
20260904014946 86 360 0.0 0.0 0.00 0.15 0.15 39 1004.8
20260904011945 88 334 2.0 2.0 0.00 0.15 0.15 37 1004.6
20260904004944 90 335 5.0 5.0 0.00 0.15 0.15 34 1004.2
20260904001943 91 352 4.0 5.0 0.00 0.15 0.15 33 1003.9
20260903234942 95 262 3.0 3.0 0.00 0.15 0.15 29 1003.1
20260903231941 96 272 5.0 7.0 0.00 0.16 0.15 30 1002.7
20260903224941 101 186 3.0 8.0 0.01 0.16 0.15 21 1001.3
20260903221939 102 185 2.0 7.0 0.01 0.15 0.14 21 1001.1
20260903214938 101 183 3.0 3.0 0.01 0.15 0.14 23 1001.5
20260903211937 102 174 2.0 2.0 0.00 0.14 0.13 22 1001.8
20260903204936 101 145 1.0 3.0 0.00 0.15 0.12 22 1002.1
20260903201935 101 195 2.0 3.0 0.01 0.15 0.12 23 1002.7
20260903194935 101 237 4.0 8.0 0.01 0.15 0.11 23 1003.1
20260903191934 100 181 4.0 4.0 0.02 0.15 0.10 25 1003.6
20260903184933 99 184 5.0 9.0 0.03 0.15 0.09 26 1004.4
20260903181931 98 191 3.0 7.0 0.02 0.15 0.07 26 1005.1
20260903174930 97 193 4.0 9.0 0.01 0.15 0.05 29 1005.7
20260903171929 95 233 6.0 11.0 0.01 0.16 0.04 31 1006.4
20260903164928 93 233 6.0 11.0 0.01 0.18 0.04 34 1006.8
20260903161927 91 236 6.0 12.0 0.01 0.20 0.03 37 1007.3